Location: Anglesey
(53.1800°N, 4.2200°W)
Time: 03:02:32
(UTC+01:00)

ISS - Visible Passes

Search period start: 19 July 2018 00:00
Search period end: 29 July 2018 00:00
Orbit: 402 x 408 km, 51.6° (Epoch: 19 July)

Date Brightness Start Highest point End Pass type
(mag) Time Alt. Az. Time Alt. Az. Time Alt. Az.
19 Jul -3.5 00:30:34 23° SW 00:32:12 41° SSE 00:35:20 10° E visible
19 Jul -3.9 02:05:13 10° W 02:08:30 68° S 02:11:48 10° E visible
19 Jul -3.4 03:41:40 10° W 03:44:48 42° SSW 03:47:57 10° SE visible
19 Jul -3.1 23:37:17 10° SW 23:40:13 30° SSE 23:43:10 10° E visible
20 Jul -3.9 01:13:09 10° WSW 01:16:26 65° S 01:19:43 10° E visible
20 Jul -3.8 02:49:34 10° W 02:52:47 53° SSW 02:56:01 10° ESE visible
20 Jul -2.4 04:26:22 10° W 04:28:50 20° SSW 04:31:18 10° SSE visible
20 Jul -2.6 22:45:41 10° SSW 22:48:16 22° SSE 22:50:53 10° E visible
21 Jul -3.8 00:21:07 10° WSW 00:24:21 56° SSE 00:27:36 10° E visible
21 Jul -3.9 01:57:27 10° W 02:00:43 63° S 02:03:59 10° ESE visible
21 Jul -2.9 03:34:02 10° W 03:36:54 28° SSW 03:39:46 10° SSE visible
21 Jul -3.6 23:29:08 10° SW 23:32:17 45° SSE 23:35:28 10° E visible
22 Jul -4.0 01:05:21 10° W 01:08:37 68° S 01:11:54 10° E visible
22 Jul -3.4 02:41:49 10° W 02:44:54 37° SSW 02:47:59 10° SE visible
22 Jul -1.8 04:19:36 10° WSW 04:20:43 11° SW 04:21:49 10° SSW visible
22 Jul -3.2 22:37:15 10° SW 22:40:16 34° SSE 22:43:17 10° E visible
23 Jul -3.9 00:13:14 10° WSW 00:16:31 67° S 00:19:48 10° E visible
23 Jul -3.7 01:49:39 10° W 01:52:51 49° SSW 01:53:17 45° SSE visible
23 Jul -3.8 23:21:09 10° WSW 23:24:24 60° S 23:27:39 10° E visible
24 Jul -3.9 00:57:30 10° W 01:00:45 60° S 01:01:39 40° SE visible
24 Jul -1.3 02:34:09 10° W 02:34:15 11° W 02:34:15 11° W visible
24 Jul -3.6 22:29:06 10° WSW 22:32:18 49° SSE 22:35:29 10° E visible
25 Jul -3.9 00:05:21 10° W 00:08:38 67° S 00:10:40 21° ESE visible
25 Jul -2.1 01:41:51 10° W 01:43:16 21° WSW 01:43:16 21° WSW visible
25 Jul -3.9 23:13:12 10° W 23:16:29 68° S 23:19:45 10° E visible
26 Jul -3.4 00:49:37 10° W 00:52:29 43° SW 00:52:29 43° SW visible
26 Jul -3.8 22:21:04 10° WSW 22:24:19 63° S 22:27:35 10° E visible
26 Jul -3.8 23:57:26 10° W 00:00:40 56° SSW 00:01:47 35° SE visible
27 Jul -1.2 01:34:09 10° W 01:34:24 11° W 01:34:24 11° W visible
27 Jul -3.8 23:05:15 10° W 23:08:31 65° S 23:11:08 15° ESE visible
28 Jul -2.4 00:41:47 10° W 00:43:45 25° WSW 00:43:45 25° WSW visible
28 Jul -3.8 22:13:04 10° W 22:16:20 68° S 22:19:36 10° E visible
28 Jul -3.3 23:49:30 10° W 23:52:37 40° SSW 23:53:08 37° S visible
